User: anonymous   Login
Location: �terpigny
(49.8910°N, 2.9249°E)
Time: 02:47:21
(UTC+00:00)
Language:

Cosmos 1825 Rocket - Orbit

View from above orbital plane
View from above orbital plane
View from above satellite
View from above satellite

Ground track
Ground track

The orbit data is extracted from the following two-line orbital elements,

1 17567U 87024B   22021.68088218  .00000165  00000-0  16943-4 0  9994
2 17567  82.5274  66.8993 0018579 200.6478 159.3989 14.83851430885501
Epoch (UTC): 21 January 2022 16:20:28
Eccentricity: 0.0018579
inclination: 82.5274°
perigee height: 604 km
apogee height: 630 km
right ascension of ascending node: 66.8993°
argument of perigee: 200.6478°
revolutions per day: 14.83851430
mean anomaly at epoch: 159.3989°
orbit number at epoch: 88550

The dashed part of the orbit path shows where the satellite is in the earth's shadow,  

DLR